When you browse on this site, cookies collect data to enhance your experience and personalize the content and advertising you see.
Visit our Privacy Policy to learn more. By continuing to use the site, you agree to this use of cookies and data.
  • In Hungary
  • List of Countries
  • For 7 days
  • Water Temperature
  • Satellite Maps
  • Weather Map
  • News
  • Weather Widgets
  • user-avatar
    Login

    Hourly Weather Pelczyn

    Today, 20 January, Sunday

    Time Temperature Precipitation Wind Pressure Humidity
    00:00 -1°C° 0 mm 1 mps 757 mmHg 76%
    01:00 -4°C° 0 mm 2 mps 757 mmHg 76%
    02:00 -4°C° 0 mm 2 mps 757 mmHg 75%
    03:00 -2°C° 0 mm 1 mps 757 mmHg 75%
    04:00 -2°C° 0 mm 1 mps 756 mmHg 74%
    05:00 -3°C° 0 mm 1 mps 756 mmHg 74%
    06:00 -3°C° 0 mm 1 mps 756 mmHg 74%
    07:00 -3°C° 0 mm 1 mps 756 mmHg 74%
    08:00 -2°C° 0 mm 1 mps 756 mmHg 71%
    09:00 -2°C° 0 mm 1 mps 757 mmHg 69%
    10:00 -1°C° 0 mm 1 mps 757 mmHg 66%
    11:00 -1°C° 0 mm 0 mps 757 mmHg 63%
    12:00 -1°C° 0 mm 0 mps 757 mmHg 60%
    13:00 0°C° 0 mm 0 mps 757 mmHg 57%
    14:00 -1°C° 0 mm 0 mps 757 mmHg 60%
    15:00 -1°C° 0 mm 0 mps 757 mmHg 64%
    16:00 -1°C° 0 mm 1 mps 757 mmHg 67%
    17:00 -1°C° 0 mm 1 mps 757 mmHg 69%
    18:00 -2°C° 0 mm 1 mps 757 mmHg 70%
    19:00 -2°C° 0 mm 1 mps 758 mmHg 72%
    20:00 -2°C° 0 mm 1 mps 758 mmHg 72%
    21:00 -2°C° 0 mm 1 mps 758 mmHg 73%
    22:00 -2°C° 0 mm 1 mps 759 mmHg 73%
    23:00 -2°C° 0 mm 1 mps 759 mmHg 74%

    Tomorrow, 21 January, Monday

    Time Temperature Precipitation Wind Pressure Humidity
    00:00 -2°C° 0 mm 1 mps 759 mmHg 75%
    01:00 -3°C° 0 mm 1 mps 759 mmHg 76%
    02:00 -3°C° 0 mm 1 mps 759 mmHg 77%
    03:00 -3°C° 0 mm 1 mps 759 mmHg 78%
    04:00 -3°C° 0 mm 1 mps 759 mmHg 79%
    05:00 -3°C° 0 mm 1 mps 759 mmHg 79%
    06:00 -3°C° 0 mm 1 mps 759 mmHg 79%
    07:00 -3°C° 0 mm 1 mps 759 mmHg 80%
    08:00 -5°C° 0 mm 2 mps 760 mmHg 77%
    09:00 -4°C° 0 mm 2 mps 760 mmHg 74%
    10:00 -3°C° 0 mm 2 mps 760 mmHg 71%
    11:00 -3°C° 0 mm 2 mps 760 mmHg 67%
    12:00 -2°C° 0 mm 2 mps 760 mmHg 64%
    13:00 -1°C° 0 mm 2 mps 759 mmHg 60%
    14:00 -2°C° 0 mm 2 mps 759 mmHg 61%
    15:00 -2°C° 0 mm 2 mps 759 mmHg 62%
    16:00 -3°C° 0 mm 2 mps 758 mmHg 63%
    17:00 -3°C° 0 mm 2 mps 758 mmHg 63%
    18:00 -4°C° 0 mm 3 mps 758 mmHg 62%
    19:00 -5°C° 0 mm 3 mps 758 mmHg 62%
    20:00 -5°C° 0 mm 3 mps 758 mmHg 62%
    21:00 -5°C° 0 mm 3 mps 758 mmHg 62%
    22:00 -5°C° 0 mm 3 mps 757 mmHg 62%
    23:00 -5°C° 0 mm 3 mps 757 mmHg 63%

    Day after tomorrow, 22 January, Tuesday

    Time Temperature Precipitation Wind Pressure Humidity
    00:00 -5°C° 0 mm 3 mps 756 mmHg 63%
    01:00 -5°C° 0 mm 3 mps 756 mmHg 64%
    02:00 -6°C° 0 mm 3 mps 756 mmHg 65%
    03:00 -6°C° 0 mm 3 mps 755 mmHg 67%
    04:00 -6°C° 0 mm 3 mps 755 mmHg 68%
    05:00 -5°C° 0 mm 2 mps 755 mmHg 69%
    06:00 -5°C° 0 mm 2 mps 754 mmHg 70%
    07:00 -5°C° 0 mm 2 mps 754 mmHg 70%
    08:00 -5°C° 0 mm 2 mps 754 mmHg 67%
    09:00 -4°C° 0 mm 2 mps 754 mmHg 64%
    10:00 -3°C° 0 mm 2 mps 754 mmHg 61%
    11:00 -3°C° 0 mm 2 mps 753 mmHg 58%
    12:00 -2°C° 0 mm 2 mps 753 mmHg 54%
    13:00 -1°C° 0 mm 2 mps 752 mmHg 51%
    14:00 -2°C° 0 mm 2 mps 751 mmHg 53%
    15:00 -2°C° 0 mm 2 mps 751 mmHg 56%
    16:00 -4°C° 0 mm 3 mps 750 mmHg 59%
    17:00 -4°C° 0 mm 3 mps 750 mmHg 61%
    18:00 -5°C° 0 mm 3 mps 750 mmHg 63%
    19:00 -5°C° 0 mm 3 mps 749 mmHg 65%
    20:00 -5°C° 0 mm 3 mps 749 mmHg 67%
    21:00 -5°C° 0 mm 3 mps 749 mmHg 69%
    22:00 -5°C° 0 mm 3 mps 749 mmHg 70%
    23:00 -5°C° 0 mm 3 mps 749 mmHg 72%

    23 January, Wednesday

    Time Temperature Precipitation Wind Pressure Humidity
    00:00 -5°C° 0 mm 3 mps 748 mmHg 74%
    01:00 -6°C° 0 mm 3 mps 748 mmHg 76%
    02:00 -6°C° 0 mm 3 mps 748 mmHg 77%
    03:00 -7°C° 0 mm 4 mps 747 mmHg 77%
    04:00 -7°C° 0 mm 4 mps 747 mmHg 77%
    05:00 -7°C° 0 mm 4 mps 747 mmHg 80%
    06:00 -7°C° 0 mm 4 mps 747 mmHg 82%
    07:00 -7°C° 0 mm 4 mps 747 mmHg 85%
    08:00 -7°C° 0 mm 4 mps 747 mmHg 82%
    09:00 -5°C° 0 mm 4 mps 747 mmHg 80%
    10:00 -6°C° 0 mm 5 mps 747 mmHg 77%
    11:00 -4°C° 0 mm 4 mps 747 mmHg 74%
    12:00 -4°C° 0 mm 4 mps 747 mmHg 71%
    13:00 -3°C° 0 mm 4 mps 747 mmHg 68%
    14:00 -3°C° 0 mm 4 mps 747 mmHg 70%
    15:00 -4°C° 0 mm 4 mps 747 mmHg 71%
    16:00 -4°C° 0 mm 3 mps 747 mmHg 72%
    17:00 -4°C° 0 mm 3 mps 747 mmHg 72%
    18:00 -4°C° 0 mm 3 mps 747 mmHg 73%
    19:00 -4°C° 0 mm 3 mps 748 mmHg 74%
    20:00 -4°C° 0 mm 3 mps 748 mmHg 76%
    21:00 -4°C° 0 mm 3 mps 748 mmHg 79%
    22:00 -3°C° 0 mm 2 mps 748 mmHg 81%
    23:00 -3°C° 0 mm 2 mps 748 mmHg 83%

    24 January, Thursday

    Time Temperature Precipitation Wind Pressure Humidity
    00:00 -3°C° 0 mm 2 mps 748 mmHg 85%
    01:00 -1°C° 0 mm 1 mps 748 mmHg 87%
    02:00 -1°C° 0 mm 1 mps 748 mmHg 88%
    03:00 -1°C° 0 mm 1 mps 748 mmHg 89%
    04:00 -1°C° 0 mm 1 mps 748 mmHg 90%
    05:00 -1°C° 0 mm 1 mps 749 mmHg 90%
    06:00 -2°C° 0 mm 0 mps 749 mmHg 90%
    07:00 -2°C° 0 mm 0 mps 749 mmHg 91%
    08:00 -1°C° 0 mm 0 mps 749 mmHg 89%
    09:00 -1°C° 0 mm 0 mps 750 mmHg 87%
    10:00 -1°C° 0 mm 0 mps 750 mmHg 86%
    11:00 +1°C° 0 mm 1 mps 750 mmHg 83%
    12:00 +1°C° 0 mm 1 mps 750 mmHg 81%
    13:00 +1°C° 0 mm 1 mps 750 mmHg 79%
    14:00 +1°C° 0 mm 1 mps 750 mmHg 81%
    15:00 0°C° 0 mm 1 mps 750 mmHg 83%
    16:00 -2°C° 0 mm 2 mps 750 mmHg 85%
    17:00 -2°C° 0 mm 2 mps 751 mmHg 86%
    18:00 -2°C° 0 mm 2 mps 751 mmHg 87%
    19:00 -1°C° 0 mm 1 mps 752 mmHg 88%
    20:00 -3°C° 0 mm 2 mps 752 mmHg 89%
    21:00 -3°C° 0 mm 2 mps 752 mmHg 89%
    22:00 -3°C° 0 mm 2 mps 752 mmHg 90%
    23:00 -3°C° 0 mm 2 mps 753 mmHg 90%

    25 January, Friday

    Time Temperature Precipitation Wind Pressure Humidity
    00:00 -3°C° 0 mm 2 mps 753 mmHg 91%
    01:00 -3°C° 0 mm 2 mps 753 mmHg 91%
    02:00 -3°C° 0 mm 2 mps 753 mmHg 91%
    03:00 -3°C° 0 mm 2 mps 753 mmHg 91%
    04:00 -4°C° 0 mm 3 mps 753 mmHg 91%
    05:00 -3°C° 0 mm 2 mps 754 mmHg 91%
    06:00 -2°C° 0 mm 2 mps 754 mmHg 91%
    07:00 -2°C° 0 mm 2 mps 754 mmHg 91%
    08:00 -2°C° 0 mm 2 mps 755 mmHg 89%
    09:00 -2°C° 0 mm 3 mps 755 mmHg 88%
    10:00 -2°C° 0 mm 3 mps 756 mmHg 86%
    11:00 -1°C° 0 mm 3 mps 756 mmHg 82%
    12:00 -1°C° 0 mm 3 mps 756 mmHg 78%
    13:00 -2°C° 0 mm 4 mps 756 mmHg 74%
    14:00 -1°C° 0 mm 3 mps 756 mmHg 75%
    15:00 -1°C° 0 mm 3 mps 757 mmHg 76%
    16:00 -1°C° 0 mm 2 mps 757 mmHg 77%
    17:00 -2°C° 0 mm 2 mps 757 mmHg 79%
    18:00 -2°C° 0 mm 3 mps 758 mmHg 82%
    19:00 -2°C° 0 mm 3 mps 758 mmHg 85%
    20:00 -2°C° 0 mm 3 mps 758 mmHg 83%
    21:00 -2°C° 0 mm 3 mps 758 mmHg 82%
    22:00 -2°C° 0 mm 3 mps 759 mmHg 81%
    23:00 -2°C° 0 mm 3 mps 759 mmHg 81%
    Show more